Погода в Южном

Россия / Республика Дагестан     43°48′58″N   46°43′28″E
темп.,
°C
ветер,
м/с
пор.,
м/с
влажн.,
%
обл.,
%
осадки,
мм/ч
давл.,
гПа
погр.,
м
25 июня, сб
сб2500:00+19вюв4781100 0.0 1009131
03:00+18вюв228366 0.0 100929
06:00+22вюв366945 0.0 1010326
09:00+28вюв5639100 0.0 10091688
12:00+30вюв5533100 0.0 10081808
15:00+31в6633100 0.0 10072075
18:00+27в5543100 0.1 10081113
21:00+21вюв2274100 0.3 100930
26 июня, вс
вс2600:00+20зюз3374100 0.0 100943
03:00+20ссз3577100 0.0 1007100
06:00+21з3473100 0.0 1008167
09:00+27зсз3344100 0.0 10081084
12:00+32всв2429100 0.0 10062163
15:00+33св5426100 0.0 10052298
18:00+31ссв5432100 0.0 10051179
21:00+23зсз3360100 0.1 100743
27 июня, пн
пн2700:00+21з51081100 0.3 1008270
03:00+21з5979100 0.3 1008255
06:00+22з68697 0.0 1009335
09:00+28зсз2456100 0.0 10091272
12:00+32всв653927 0.0 10091929
15:00+31св77365 0.0 10101668
18:00+27св664644 0.0 1010829
21:00+21ссз346821 0.0 101158
28 июня, вт
вт2800:00+20сз3470100 0.0 101060
03:00+20зсз3367100 0.0 101043
06:00+23зсз3461100 0.0 1010187
09:00+30ссв55295 0.0 10091583
12:00+33ссв76240 0.0 10081974
15:00+32ссв77260 0.0 10081814
18:00+29св56300 0.0 10101218
21:00+22ссв334981 0.1 101121
29 июня, ср
ср2900:00+20з2258100 0.0 101114
03:00+20сз235585 0.0 101123
06:00+23ссз24460 0.0 1012164
09:00+30с443710 0.0 10111842
12:00+31св7433100 0.0 10102424
15:00+30всв864078 0.0 10111806
18:00+25всв7758100 0.0 10121031
21:00+21в4874100 0.0 1014378